Zurück zum Katalog

STARLINK-31270

AktivKommunikationVLEO
NORAD 59154·PAYLOAD·🇺🇸 United States

Gestartet Mar 4, 2024 von Cape Canaveral Space Force Station

Loading…

Nächste Überflüge (nächste 24 Stunden)

TLE

AktuellSource: CelesTrak SupGP

Epoche: Sep 14, 2026, 21:26 UTC

1 59154C 24044C   26257.89354167  .00004921  00000+0  17831-3 0  2578
2 59154  42.9991 118.5941 0001392 271.8781 347.6597 15.27564478    19

Verfolge STARLINK-31270 in Echtzeit mit AllMySat

Download on the App Store